Tracking 19832 objects as of 25-Aug-2019
HD Live streaming from Space Station
objects crossing your sky now

COSMOS 2251 DEB

Track COSMOS 2251 DEB now!
10-day predictions


NORAD ID: 34721
Int'l Code: 1993-036YP
Perigee: 765.7 km
Apogee: 1,120.9 km
Inclination: 73.9 °
Period: 103.8 minutes
Semi major axis: 7314 km
RCS: 0.0075 m2 (small)
Launch date: June 16, 1993
Source: Commonwealth of Independent States (former USSR) (CIS)
Launch site: PLESETSK MISSILE AND SPACE COMPLEX (PKMTR)

Note: This is SATELLITE DEBRIS
aabbcc
Your satellite tracking list
Your tracking list is empty




NASA's NSSDC Master Catalog

Two Line Element Set (TLE):
1 34721U 93036YP  19236.94864785 +.00000123 +00000-0 +98200-4 0  9999
2 34721 073.9265 317.1948 0242769 353.2266 117.5906 13.87858812531550
Source of the keplerian elements: AFSPC